Weather History for Park Rapids, MN

Change the Weather History Date:

Tuesday, March 19, 2013

  Actual Average Record
Temperature  
Mean Temperature 5 °F -  
Max Temperature 14 °F 40 °F 72 °F (2012)
Min Temperature -4 °F 18 °F -13 °F (1949)
Degree Days  
Heating Degree Days 60    
Moisture  
Dew Point -4 °F    
Average Humidity 66    
Maximum Humidity 82    
Minimum Humidity 53    
Precipitation  
Precipitation 0.00 in - - ()
Sea Level Pressure  
Sea Level Pressure 30.14 in    
Wind  
Wind Speed 15 mph (NW)    
Max Wind Speed 24 mph    
Max Gust Speed 30 mph    
Visibility 10 miles    
Events      
Averages and records for this station are not official NWS values.
T = Trace of Precipitation, MM = Missing Value Source: NWS Daily Summary

Daily Weather History Graph

Daily Weather History Graph

Search for Another Location

Airport:

Trip Planner

Search our weather history database for the weather conditions in past years. The results will help you decide how hot, cold, wet, or windy it might be!

Date:

Astronomy

Mar. 19, 2013 Rise Set
Actual Time 7:24 AM CDT 7:31 PM CDT
Civil Twilight 6:54 AM CDT 8:02 PM CDT
Nautical Twilight 6:18 AM CDT 8:37 PM CDT
Astronomical Twilight 5:42 AM CDT 9:14 PM CDT
Moon 11:54 AM CDT (3/19) 2:40 AM CDT (3/19)
Length of Visible Light 13h 07m
Length of Day
12h 07m
Waxing Crescent, 50% of the Moon is Illuminated
Mar 19
Waxing Crescent
Mar 19
First Quarter
Mar 27
Full
Apr 2
Last Quarter
Apr 10
New

Hourly Weather History & Observations

Time (CDT) Temp. Windchill Dew Point Humidity Pressure Visibility Wind Dir Wind Speed Gust Speed Precip Events Conditions
2:53 AM 1.9 °F -16.2 °F -2.9 °F 80% 29.93 in 10.0 mi NW 13.8 mph - N/A   Clear
3:53 AM 1.9 °F -16.9 °F -4.0 °F 76% 29.95 in 10.0 mi WNW 15.0 mph - N/A   Clear
4:53 AM -0.9 °F -19.9 °F -6.0 °F 79% 29.98 in 10.0 mi WNW 13.8 mph - N/A   Clear
5:53 AM -2.9 °F -20.8 °F -7.1 °F 82% 30.01 in 10.0 mi NW 11.5 mph - N/A   Clear
6:53 AM -2.9 °F -21.6 °F -8.0 °F 79% 30.04 in 10.0 mi WNW 12.7 mph - N/A   Clear
7:53 AM -4.0 °F -22.1 °F -9.0 °F 79% 30.07 in 10.0 mi NW 11.5 mph - N/A   Clear
8:53 AM -0.9 °F -16.4 °F -7.1 °F 75% 30.09 in 10.0 mi WNW 9.2 mph - N/A   Partly Cloudy
9:53 AM 3.0 °F -14.1 °F -4.0 °F 73% 30.11 in 10.0 mi WNW 12.7 mph - N/A   Clear
10:53 AM 9.0 °F -9.0 °F -2.0 °F 61% 30.11 in 10.0 mi NW 17.3 mph - N/A   Clear
11:53 AM 10.9 °F -5.9 °F -0.0 °F 61% 30.12 in 9.0 mi NW 16.1 mph - 0.00 in   Clear
12:53 PM 12.9 °F -3.4 °F 1.0 °F 59% 30.14 in 10.0 mi NW 16.1 mph - 0.00 in   Clear
1:53 PM 14.0 °F -2.0 °F 1.9 °F 59% 30.14 in 10.0 mi WNW 16.1 mph - N/A   Partly Cloudy
2:53 PM 14.0 °F -4.7 °F 1.0 °F 56% 30.15 in 10.0 mi WNW 23.0 mph - N/A   Clear
3:53 PM 12.9 °F -5.7 °F -0.0 °F 56% 30.17 in 9.0 mi NW 21.9 mph - N/A   Clear
4:53 PM 12.0 °F -7.7 °F -2.0 °F 53% 30.19 in 8.0 mi WNW 24.2 mph - N/A   Clear
5:53 PM 10.9 °F -7.9 °F -2.0 °F 56% 30.23 in 7.0 mi NW 20.7 mph 29.9 mph 0.00 in   Clear
6:53 PM 8.1 °F -11.2 °F -5.1 °F 55% 30.25 in 10.0 mi NW 19.6 mph 25.3 mph N/A   Clear
7:53 PM 6.1 °F -13.3 °F -6.0 °F 58% 30.27 in 10.0 mi NW 18.4 mph - N/A   Clear
8:53 PM 5.0 °F -15.2 °F -7.1 °F 58% 30.27 in 10.0 mi NW 19.6 mph - N/A   Clear
9:53 PM 3.0 °F -16.1 °F -7.1 °F 63% 30.27 in 10.0 mi WNW 16.1 mph - N/A   Clear
10:53 PM 1.9 °F -16.9 °F -7.1 °F 66% 30.27 in 10.0 mi WNW 15.0 mph - N/A   Clear
11:53 PM 1.0 °F -16.6 °F -7.1 °F 69% 30.27 in 10.0 mi WNW 12.7 mph - N/A   Clear